Hourly Data Report for August 29, 2017

QUALICUM BEACH AIRPORT
BRITISH COLUMBIA

49°20'14.000" N
124°23'38.000" W
58.20 m
1026562
71766
VOQ

Download Data

Hourly Data (August 2017)
Hourly Data Report for August 29, 2017
TIME
LST
Temp Definition
°C
Dew Point Definition
°C
Rel Hum Definition
%
Precip. Amount Definition
mm

Wind Dir Definition
10's deg

Wind Spd Definition
km/h
Visibility Definition
km
Stn Press Definition
kPa
Hmdx Definition


Wind Chill Definition


Weather Definition


00:00 16.1 11.2 73 0.0 23 3   100.26     LegendNANA
01:00 15.9 11.2 74 0.0 27 2   100.27     LegendNANA
02:00 14.0 10.6 80 0.0 21 2   100.28     LegendNANA
03:00 13.7 10.3 80 0.0 27 2   100.28     LegendNANA
04:00 13.0 10.0 82 0.0 0 1   100.28     LegendNANA
05:00 12.0 9.5 85 0.0 20 1   100.29     LegendNANA
06:00 13.1 10.0 82 0.0 25 2   100.32     LegendNANA
07:00 15.6 11.0 74 0.0 20 1   100.35     LegendNANA
08:00 22.1 13.1 57 0.0 4 1   100.35 25   LegendNANA
09:00 23.2 14.9 60 0.0 11 4   100.34 27   LegendNANA
10:00 23.8 15.7 60 0.0 7 8   100.33 28   LegendNANA
11:00 24.4 15.7 58 0.0 3 6   100.31 29   LegendNANA
12:00 26.8 14.9 48 0.0 9 8   100.28 31   LegendNANA
13:00 26.4 14.3 47 0.0 8 9   100.26 30   LegendNANA
14:00 26.6 14.7 48 0.0 8 8   100.24 30   LegendNANA
15:00 25.9 15.9 54 0.0 8 7   100.21 30   LegendNANA
16:00 25.3 15.2 54 0.0 10 9   100.18 29   LegendNANA
17:00 25.6 16.1 56 0.0 8 4   100.16 30   LegendNANA
18:00 23.8 16.5 64 0.0 6 4   100.16 29   LegendNANA
19:00 20.9 16.2 75 0.0 0 1   100.17 26   LegendNANA
20:00 19.0 15.6 81 0.0 36 3   100.22     LegendNANA
21:00 18.2 14.4 78 0.0 28 3   100.26     LegendNANA
22:00 17.1 12.9 76 0.0 25 3   100.30     LegendNANA
23:00 15.9 12.8 82 0.0 25 5   100.31     LegendNANA

Notes on Data Quality.

Legend

  • E = Estimated
  • M = Missing
  • NA = Not Available*
  • [empty] = Indicates an unobserved value
Date modified: